This is the latest recevied weather packets stored in our database for station/object K4XP. If no packets are shown the sender has not sent any weather packets the latest 10 day(s).
| Time | Temp. | Humidity | Pressure | Rain* | Wind** | Luminosity | Snow |
|---|---|---|---|---|---|---|---|
| 1777911627 | 21.67° C | 41% | 1016.8 hPa | 0 mm | - | - | - |
| 1777911324 | 21.67° C | 43% | 1016.8 hPa | 0 mm | - | - | - |
| 1777911018 | 21.11° C | 39% | 1016.9 hPa | 0 mm | - | - | - |
| 1777910714 | 21.11° C | 42% | 1017 hPa | 0 mm | - | - | - |
| 1777910414 | 21.11° C | 40% | 1017 hPa | 0 mm | - | - | - |
| 1777910129 | 20.56° C | 42% | 1017.1 hPa | 0 mm | - | - | - |
| 1777909824 | 20.56° C | 42% | 1017.1 hPa | 0 mm | - | - | - |
| 1777909519 | 20° C | 44% | 1017.2 hPa | 0 mm | - | - | - |
| 1777909214 | 19.44° C | 46% | 1017.2 hPa | 0 mm | - | - | - |
| 1777908911 | 19.44° C | 44% | 1017.2 hPa | 0 mm | - | - | - |
| 1777908628 | 19.44° C | 45% | 1017.3 hPa | 0 mm | - | - | - |
| 1777908324 | 19.44° C | 46% | 1017.4 hPa | 0 mm | - | - | - |
| 1777908024 | 18.89° C | 46% | 1017.4 hPa | 0 mm | - | - | - |
| 1777907720 | 18.89° C | 45% | 1017.4 hPa | 0 mm | - | - | - |
| 1777907416 | 18.89° C | 44% | 1017.4 hPa | 0 mm | - | - | - |
| 1777907113 | 18.89° C | 48% | 1017.4 hPa | 0 mm | - | - | - |
| 1777906828 | 18.89° C | 47% | 1017.4 hPa | 0 mm | - | - | - |
| 1777906523 | 19.44° C | 47% | 1017.4 hPa | 0 mm | - | - | - |
| 1777906219 | 18.89° C | 46% | 1017.5 hPa | 0 mm | - | - | - |
| 1777905919 | 18.89° C | 46% | 1017.4 hPa | 0 mm | - | - | - |
| 1777905616 | 18.33° C | 47% | 1017.5 hPa | 0 mm | - | - | - |
| 1777905311 | 18.33° C | 49% | 1017.5 hPa | 0 mm | - | - | - |
| 1777905030 | 17.78° C | 49% | 1017.5 hPa | 0 mm | - | - | - |
| 1777904725 | 17.78° C | 48% | 1017.5 hPa | 0 mm | - | - | - |
| 1777904422 | 17.78° C | 55% | 1017.5 hPa | 0 mm | - | - | - |
* Rain latest hour (hover to see other rain measurements)
** Current wind speed in m/s (hover to see current wind gust speed)